{"data":{"norad_id":66441,"epoch":"2026-05-25T04:47:00.134304Z","epoch_age_seconds":48002,"freshness":"FRESH","line1":"1 66441U 25259V   26145.19930711  .00014722  00000+0  54322-3 0  9997","line2":"2 66441  42.9963 202.1541 0000706 287.3913  72.6861 15.27592354 31194","mean_motion":15.27592354,"eccentricity":7.06e-5,"inclination_deg":42.9963,"raan_deg":202.1541,"arg_perigee_deg":287.3913,"mean_anomaly_deg":72.6861,"bstar":0.00054322,"rev_number":3119,"period_min":94.2659863562,"perigee_km":482.52770684189,"apogee_km":483.49650109537,"semimajor_km":6861.1491039686,"source":"CELESTRAK","updated_at":"2026-05-25T13:38:21.211207Z"}}